Location: Ernez
(36.4595°N, 29.8755°E)
Time: 08:40:55
(UTC+00:00)

Cosmos 1943 Rocket - Pass Details

Date: 13 November 2025
Orbit: 812 x 841 km, 71.0° (Epoch: 05 December)

Event Time Altitude Azimuth Distance (km) Brightness Sun altitude
Rises 15:31:47 0° 178° (S) 3,375 5.5 -8.1°
Reaches altitude 10° 15:34:22 10° 170° (S) 2,442 4.7 -8.6°
Maximum altitude 15:39:28 37° 104° (ESE) 1,276 2.7 -9.6°
Drops below altitude 10° 15:44:34 10° 39° (NE) 2,442 4.1 -10.6°
Enters shadow 15:45:37 - 35° (NE) 2,815 4.5 -10.8°
